When you browse on this site, cookies collect data to enhance your experience and personalize the content and advertising you see.
Visit our Privacy Policy to learn more. By continuing to use the site, you agree to this use of cookies and data.
  • In France
  • List of Countries
  • For 7 days
  • Water Temperature
  • Weather Map
  • Weather Widgets
  • user-avatar
    Login

    Hourly Weather Acuitzio del Canje

    Today, 14 October, Monday

    Time Temperature Precipitation Wind Pressure Humidity
    00:00 +14°C° 0 mm 1 mps 591 mmHg 91%
    01:00 +13°C° 0 mm 1 mps 591 mmHg 91%
    02:00 +13°C° 0 mm 1 mps 591 mmHg 91%
    03:00 +13°C° 0 mm 1 mps 591 mmHg 91%
    04:00 +13°C° 0 mm 1 mps 591 mmHg 91%
    05:00 +13°C° 0 mm 1 mps 591 mmHg 91%
    06:00 +15°C° 0 mm 1 mps 592 mmHg 89%
    07:00 +16°C° 0 mm 1 mps 593 mmHg 86%
    08:00 +19°C° 0 mm 1 mps 594 mmHg 83%
    09:00 +21°C° 0.1 mm 1 mps 595 mmHg 75%
    10:00 +23°C° 0.1 mm 1 mps 595 mmHg 67%
    11:00 +25°C° 0.1 mm 1 mps 596 mmHg 59%
    12:00 +25°C° 0.2 mm 1 mps 595 mmHg 59%
    13:00 +25°C° 0.2 mm 2 mps 594 mmHg 58%
    14:00 +25°C° 0.2 mm 2 mps 593 mmHg 58%
    15:00 +23°C° 0.4 mm 1 mps 593 mmHg 67%
    16:00 +21°C° 0.4 mm 1 mps 592 mmHg 76%
    17:00 +17°C° 0.4 mm 0 mps 591 mmHg 85%
    18:00 +18°C° 0.2 mm 1 mps 591 mmHg 86%
    19:00 +16°C° 0.2 mm 1 mps 591 mmHg 88%
    20:00 +15°C° 0.2 mm 1 mps 592 mmHg 90%
    21:00 +14°C° 0.1 mm 1 mps 592 mmHg 90%
    22:00 +14°C° 0.1 mm 1 mps 592 mmHg 90%
    23:00 +14°C° 0.1 mm 1 mps 592 mmHg 90%

    Tomorrow, 15 October, Tuesday

    Time Temperature Precipitation Wind Pressure Humidity
    00:00 +13°C° 0 mm 1 mps 591 mmHg 91%
    01:00 +13°C° 0 mm 1 mps 591 mmHg 91%
    02:00 +13°C° 0 mm 1 mps 591 mmHg 91%
    03:00 +13°C° 0 mm 1 mps 591 mmHg 91%
    04:00 +13°C° 0 mm 1 mps 591 mmHg 91%
    05:00 +12°C° 0 mm 1 mps 591 mmHg 90%
    06:00 +15°C° 0 mm 1 mps 592 mmHg 84%
    07:00 +18°C° 0 mm 1 mps 593 mmHg 78%
    08:00 +20°C° 0 mm 1 mps 595 mmHg 72%
    09:00 +22°C° 0.1 mm 1 mps 595 mmHg 68%
    10:00 +23°C° 0.1 mm 1 mps 595 mmHg 63%
    11:00 +25°C° 0.1 mm 1 mps 595 mmHg 59%
    12:00 +25°C° 0.4 mm 1 mps 594 mmHg 62%
    13:00 +24°C° 0.4 mm 1 mps 593 mmHg 65%
    14:00 +24°C° 0.4 mm 1 mps 592 mmHg 67%
    15:00 +22°C° 0.7 mm 1 mps 592 mmHg 75%
    16:00 +21°C° 0.7 mm 1 mps 591 mmHg 83%
    17:00 +19°C° 0.7 mm 1 mps 590 mmHg 91%
    18:00 +18°C° 0.2 mm 1 mps 590 mmHg 90%
    19:00 +16°C° 0.2 mm 1 mps 590 mmHg 90%
    20:00 +15°C° 0.2 mm 1 mps 591 mmHg 89%
    21:00 +15°C° 0 mm 1 mps 590 mmHg 89%
    22:00 +14°C° 0 mm 1 mps 590 mmHg 89%
    23:00 +14°C° 0 mm 1 mps 590 mmHg 88%

    Day after tomorrow, 16 October, Wednesday

    Time Temperature Precipitation Wind Pressure Humidity
    00:00 +14°C° 0.1 mm 1 mps 590 mmHg 88%
    01:00 +14°C° 0.1 mm 1 mps 590 mmHg 88%
    02:00 +13°C° 0.1 mm 1 mps 589 mmHg 88%
    03:00 +13°C° 0 mm 1 mps 589 mmHg 88%
    04:00 +13°C° 0 mm 1 mps 589 mmHg 89%
    05:00 +12°C° 0 mm 1 mps 589 mmHg 89%
    06:00 +14°C° 0 mm 1 mps 590 mmHg 86%
    07:00 +16°C° 0 mm 1 mps 591 mmHg 83%
    08:00 +19°C° 0 mm 1 mps 592 mmHg 79%
    09:00 +21°C° 0 mm 1 mps 593 mmHg 72%
    10:00 +22°C° 0 mm 1 mps 593 mmHg 65%
    11:00 +24°C° 0 mm 1 mps 594 mmHg 57%
    12:00 +24°C° 0.5 mm 1 mps 593 mmHg 61%
    13:00 +24°C° 0.5 mm 1 mps 592 mmHg 64%
    14:00 +24°C° 0.5 mm 1 mps 591 mmHg 67%
    15:00 +22°C° 1.2 mm 1 mps 591 mmHg 76%
    16:00 +20°C° 1.2 mm 1 mps 590 mmHg 84%
    17:00 +16°C° 1.2 mm 0 mps 590 mmHg 93%
    18:00 +18°C° 1.2 mm 1 mps 590 mmHg 93%
    19:00 +16°C° 1.2 mm 1 mps 590 mmHg 94%
    20:00 +16°C° 1.2 mm 1 mps 591 mmHg 95%
    21:00 +16°C° 1.4 mm 1 mps 591 mmHg 95%
    22:00 +15°C° 1.4 mm 0 mps 591 mmHg 95%
    23:00 +14°C° 1.4 mm 0 mps 591 mmHg 96%

    17 October, Thursday

    Time Temperature Precipitation Wind Pressure Humidity
    00:00 +15°C° 0.7 mm 1 mps 590 mmHg 96%
    01:00 +15°C° 0.7 mm 1 mps 590 mmHg 96%
    02:00 +15°C° 0.7 mm 1 mps 590 mmHg 96%
    03:00 +15°C° 0.1 mm 1 mps 590 mmHg 96%
    04:00 +15°C° 0.1 mm 1 mps 590 mmHg 96%
    05:00 +15°C° 0.1 mm 1 mps 590 mmHg 95%
    06:00 +16°C° 0.1 mm 1 mps 591 mmHg 94%
    07:00 +16°C° 0.1 mm 1 mps 591 mmHg 93%
    08:00 +18°C° 0.1 mm 1 mps 592 mmHg 92%
    09:00 +18°C° 0.5 mm 2 mps 592 mmHg 88%
    10:00 +19°C° 0.5 mm 2 mps 592 mmHg 84%
    11:00 +19°C° 0.5 mm 3 mps 593 mmHg 79%
    12:00 +19°C° 0.4 mm 3 mps 592 mmHg 79%
    13:00 +19°C° 0.4 mm 3 mps 591 mmHg 79%
    14:00 +19°C° 0.4 mm 3 mps 591 mmHg 79%
    15:00 +18°C° 0.3 mm 2 mps 591 mmHg 84%
    16:00 +17°C° 0.3 mm 2 mps 590 mmHg 89%
    17:00 +16°C° 0.3 mm 1 mps 590 mmHg 94%
    18:00 +15°C° 0.4 mm 1 mps 591 mmHg 95%
    19:00 +15°C° 0.4 mm 1 mps 591 mmHg 96%
    20:00 +15°C° 0.4 mm 1 mps 591 mmHg 98%
    21:00 +15°C° 0.3 mm 1 mps 591 mmHg 98%
    22:00 +15°C° 0.3 mm 1 mps 591 mmHg 97%
    23:00 +14°C° 0.3 mm 1 mps 591 mmHg 97%

    18 October, Friday

    Time Temperature Precipitation Wind Pressure Humidity
    00:00 +14°C° 0.1 mm 1 mps 591 mmHg 97%
    01:00 +14°C° 0.1 mm 1 mps 591 mmHg 98%
    02:00 +14°C° 0.1 mm 1 mps 590 mmHg 98%
    03:00 +14°C° 0.1 mm 1 mps 590 mmHg 98%
    04:00 +14°C° 0.1 mm 1 mps 590 mmHg 98%
    05:00 +14°C° 0.1 mm 1 mps 591 mmHg 98%
    06:00 +14°C° 0 mm 1 mps 591 mmHg 95%
    07:00 +15°C° 0 mm 1 mps 592 mmHg 92%
    08:00 +16°C° 0 mm 1 mps 593 mmHg 89%
    09:00 +17°C° 0 mm 2 mps 593 mmHg 82%
    10:00 +19°C° 0 mm 2 mps 593 mmHg 75%
    11:00 +20°C° 0 mm 3 mps 593 mmHg 68%
    12:00 +20°C° 0.2 mm 2 mps 592 mmHg 70%
    13:00 +20°C° 0.2 mm 2 mps 592 mmHg 73%
    14:00 +20°C° 0.2 mm 2 mps 591 mmHg 75%
    15:00 +19°C° 0.3 mm 2 mps 591 mmHg 81%
    16:00 +19°C° 0.3 mm 1 mps 590 mmHg 88%
    17:00 +16°C° 0.3 mm 1 mps 590 mmHg 94%
    18:00 +16°C° 0 mm 1 mps 590 mmHg 95%
    19:00 +15°C° 0 mm 1 mps 590 mmHg 96%
    20:00 +13°C° 0 mm 0 mps 591 mmHg 98%
    21:00 +13°C° 0 mm 0 mps 591 mmHg 98%
    22:00 +13°C° 0 mm 0 mps 591 mmHg 98%
    23:00 +13°C° 0 mm 0 mps 591 mmHg 98%

    19 October, Saturday

    Time Temperature Precipitation Wind Pressure Humidity
    00:00 +13°C° 0 mm 0 mps 590 mmHg 97%
    01:00 +13°C° 0 mm 0 mps 590 mmHg 97%
    02:00 +13°C° 0 mm 0 mps 590 mmHg 97%
    03:00 +13°C° 0 mm 0 mps 590 mmHg 97%
    04:00 +13°C° 0 mm 0 mps 590 mmHg 96%
    05:00 +13°C° 0 mm 0 mps 590 mmHg 96%
    06:00 +14°C° 0 mm 0 mps 591 mmHg 92%
    07:00 +15°C° 0 mm 0 mps 591 mmHg 88%
    08:00 +17°C° 0 mm 0 mps 592 mmHg 85%
    09:00 +20°C° 0 mm 1 mps 592 mmHg 78%
    10:00 +22°C° 0 mm 1 mps 593 mmHg 71%
    11:00 +24°C° 0 mm 1 mps 593 mmHg 64%
    12:00 +23°C° 0.4 mm 2 mps 592 mmHg 68%
    13:00 +21°C° 0.4 mm 2 mps 591 mmHg 73%
    14:00 +21°C° 0.4 mm 2 mps 590 mmHg 78%
    15:00 +20°C° 0.4 mm 1 mps 589 mmHg 83%
    16:00 +19°C° 0.4 mm 1 mps 589 mmHg 89%
    17:00 +18°C° 0.4 mm 1 mps 589 mmHg 94%
    18:00 +16°C° 0.2 mm 1 mps 589 mmHg 95%
    19:00 +15°C° 0.2 mm 1 mps 589 mmHg 96%
    20:00 +14°C° 0.2 mm 1 mps 589 mmHg 97%
    21:00 +14°C° 0 mm 1 mps 589 mmHg 96%
    22:00 +14°C° 0 mm 1 mps 589 mmHg 96%
    23:00 +14°C° 0 mm 1 mps 589 mmHg 95%
    Show more